Theta_e
316 316 315 315 315 315 316 316 317 317 316 317 318 319 319 319 319 319 319 319 320 320 318 317 317 317 319 320 322 326 332 337 352 352 352 352 350 348 346 345 344 344 340 342
316 316 315 314 314 314 315 317 318 317 316 318 319 320 320 320 320 319 320 320 319 320 320 319 318 317 319 321 322 330 335 341 349 352 352 352 350 347 346 344 344 342 338 344
315 315 314 315 315 316 316 317 318 317 317 318 320 321 320 319 319 319 320 320 320 320 320 320 319 317 317 319 322 327 337 344 347 353 350 350 350 348 346 345 344 340 338 344
312 312 313 314 315 316 317 316 316 317 320 321 319 321 320 320 320 320 320 320 320 320 320 320 320 319 318 319 320 326 335 344 346 349 349 350 350 348 345 344 343 340 338 345
313 313 314 314 314 314 315 317 319 319 320 320 319 321 320 320 320 319 318 318 319 319 320 320 319 319 318 318 319 323 333 342 346 346 349 348 349 347 345 343 345 343 342 348
315 313 314 316 317 317 317 317 316 317 318 322 321 321 320 320 319 319 319 319 317 317 318 319 319 318 318 318 318 320 330 340 344 346 347 349 348 347 345 345 347 347 347 348
315 313 313 316 318 318 317 317 323 323 323 326 321 321 320 320 319 318 319 319 319 318 318 319 319 319 318 318 319 319 325 337 343 345 346 349 349 347 347 347 346 344 342 339
316 318 314 314 314 314 315 316 322 325 322 322 319 321 320 318 318 318 318 319 319 319 320 320 320 320 319 319 319 319 325 333 341 345 345 347 350 350 347 345 343 340 340 340
316 316 314 314 314 315 319 320 317 327 322 323 320 319 318 318 318 320 320 319 321 320 321 321 321 321 321 321 321 321 322 331 338 342 344 347 350 349 347 346 342 342 340 335
314 317 313 314 315 315 316 315 322 323 325 324 320 319 318 318 317 318 320 320 320 320 319 320 320 320 321 323 323 322 321 327 337 339 344 345 348 349 345 342 341 339 334 331
313 314 316 315 317 317 318 317 318 320 323 324 322 319 319 318 317 318 318 319 320 320 319 320 320 319 319 320 322 323 322 325 333 339 343 343 346 345 342 342 338 337 333 329
313 316 319 316 315 315 315 317 318 327 323 323 325 325 318 317 317 318 318 317 317 318 319 319 319 319 319 319 321 323 323 324 333 337 341 343 344 343 341 340 336 332 329 327
313 317 319 318 319 318 319 318 318 319 322 325 326 322 318 318 317 317 317 318 318 318 319 319 319 319 320 319 321 322 324 323 332 337 340 338 338 343 339 336 331 330 328 325
312 315 316 320 320 318 321 319 317 321 322 322 322 320 318 318 318 317 317 317 316 316 317 318 320 320 319 320 322 322 324 324 335 337 342 341 337 336 334 332 331 329 329 325
317 319 318 317 318 317 318 317 316 318 319 321 320 320 317 316 317 317 316 314 314 314 315 316 318 319 320 322 322 323 324 326 334 335 338 338 331 330 329 328 327 327 326 322
314 317 317 319 317 316 316 315 315 315 315 315 315 317 316 316 316 316 314 313 312 313 313 314 315 317 319 321 323 323 323 327 333 335 337 333 328 327 324 323 322 319 318 317
312 315 319 318 315 316 319 319 316 315 314 315 319 317 315 315 314 314 312 312 312 312 313 314 316 317 318 319 321 323 324 326 333 335 331 329 324 322 320 317 316 314 313 313
315 313 316 319 317 319 317 315 314 315 314 314 315 314 312 310 309 311 311 310 310 310 312 315 314 318 317 318 320 322 324 326 333 332 327 324 322 318 317 315 313 311 310 308
314 315 318 320 321 317 316 316 315 315 313 313 314 312 310 311 311 310 309 309 309 309 311 313 313 314 317 319 320 322 324 328 327 324 321 320 319 318 315 313 312 308 306 304
316 316 318 317 320 318 315 315 312 312 319 312 311 312 311 309 309 311 309 308 307 308 309 310 310 313 316 320 322 323 326 326 322 320 318 316 316 316 314 312 308 306 305 301
316 316 320 319 318 317 314 312 311 317 319 314 312 310 309 308 307 307 306 307 308 308 310 310 312 315 318 319 322 325 326 322 318 316 315 315 314 313 311 307 305 302 300 299
317 318 318 318 319 320 313 314 316 315 312 310 309 308 307 306 306 306 306 307 309 310 311 311 314 316 319 321 324 325 319 316 316 315 313 312 311 309 307 304 301 300 299 299
317 318 319 316 317 316 314 314 313 310 309 308 307 306 305 305 305 306 307 308 309 310 314 315 317 321 322 324 322 316 315 315 313 310 309 308 308 308 306 306 302 303 302 301
313 314 314 313 315 314 313 311 310 308 307 306 305 304 305 306 307 308 311 315 318 320 321 319 318 316 316 315 314 312 310 310 308 306 306 305 304 304 303 304 305 305 302 300
313 311 313 313 313 312 310 308 306 306 305 304 304 305 306 307 310 311 319 317 316 315 315 313 312 311 310 310 310 309 307 307 306 305 304 304 303 303 301 299 300 299 299 297
314 314 314 315 313 308 307 306 306 305 304 304 305 306 309 309 309 312 314 314 312 311 310 310 309 308 308 307 306 306 305 305 303 303 303 299 299 297 294 293 291 293 293 293
Wind_Speed
6 10 14 16 13 15 15 18 20 19 16 17 20 24 25 21 21 21 21 21 20 19 18 18 19 18 14 11 12 18 21 24 25 27 27 26 26 24 21 18 18 16 16 17
11 15 15 13 14 16 18 20 21 19 16 16 23 28 25 23 24 24 22 21 20 19 18 17 20 20 15 13 12 15 20 22 27 27 28 26 25 24 23 21 20 21 18 17
16 19 21 19 20 19 19 19 20 20 20 20 22 24 17 4 9 13 15 16 17 19 18 18 18 20 19 14 12 13 18 20 25 26 26 18 19 18 21 22 20 19 18 17
12 7 11 15 18 17 20 16 18 18 16 13 15 11 18 12 12 8 7 10 12 16 17 16 17 20 21 19 14 11 14 19 26 26 26 22 26 23 26 27 24 21 20 17
11 17 14 17 18 16 19 9 14 16 18 20 19 12 8 7 8 5 5 2 8 10 14 18 19 22 22 22 19 14 12 17 22 28 27 25 27 26 22 22 27 24 21 18
14 15 12 9 8 5 6 12 18 21 16 13 15 14 8 4 7 3 10 6 3 3 5 11 17 19 19 22 20 18 15 16 23 26 29 28 26 24 28 27 26 27 27 19
14 8 5 6 10 9 10 12 8 5 6 9 5 9 13 12 15 10 6 6 6 7 9 9 12 14 18 19 19 16 18 17 22 28 29 30 29 27 29 30 28 30 29 23
7 7 4 1 11 18 19 13 6 6 9 13 11 8 1 4 8 7 9 11 6 3 1 4 6 7 10 12 13 14 17 18 20 25 28 30 29 29 27 28 28 29 34 31
11 7 17 21 13 8 2 6 9 6 17 10 9 12 12 8 5 5 6 2 2 1 2 3 4 6 8 9 11 12 16 16 17 21 27 30 33 30 27 29 30 24 26 27
8 19 9 3 8 13 15 7 7 5 5 8 8 12 9 6 1 3 4 2 1 3 5 5 6 7 8 9 7 9 16 17 18 20 26 30 34 30 34 36 33 32 27 29
14 7 9 16 13 10 4 11 8 8 8 7 13 4 7 3 8 5 7 1 6 8 10 12 12 13 12 11 11 6 12 19 17 19 25 29 32 30 36 35 35 38 35 32
6 7 13 21 22 16 16 17 15 8 10 11 14 15 11 5 5 1 4 7 12 16 17 17 16 16 14 15 12 9 10 17 18 16 21 28 31 36 35 37 38 38 35 28
7 4 8 9 5 1 6 10 14 16 16 17 17 14 4 6 8 12 13 14 14 15 18 17 18 17 14 16 14 11 9 15 17 15 19 23 24 24 45 34 38 39 36 30
10 7 15 14 19 18 18 20 20 14 8 20 22 29 24 22 19 16 16 12 16 16 17 17 16 16 17 15 12 12 9 13 14 16 18 21 21 25 27 51 43 40 36 33
4 5 13 20 23 24 25 26 24 23 24 18 25 27 27 25 26 15 11 14 16 17 18 18 17 15 14 15 12 12 8 10 17 18 21 18 24 29 40 37 39 38 37 35
1 5 9 13 23 24 23 25 23 22 24 26 26 30 23 17 8 13 17 16 16 20 22 21 20 19 16 17 15 10 8 9 18 21 24 27 33 31 28 39 39 40 36 40
4 3 4 16 15 19 17 10 8 14 16 14 16 21 21 21 21 16 17 17 21 25 23 21 19 17 18 19 17 12 8 9 20 22 26 30 37 39 30 37 40 40 43 45
5 3 4 10 15 8 2 6 9 15 15 18 19 22 12 14 17 22 19 24 21 20 19 16 14 16 18 20 18 14 9 11 15 25 29 34 32 46 27 38 39 38 43 45
15 6 4 4 8 19 14 3 4 11 22 23 15 10 14 20 25 26 17 15 15 17 16 14 22 21 25 19 17 15 11 9 26 30 33 32 38 40 37 39 38 38 43 40
12 14 6 4 8 9 10 1 5 14 20 4 8 20 26 19 14 22 17 17 18 20 22 22 29 25 23 23 18 15 11 24 28 34 36 36 41 43 38 41 40 44 36 36
7 8 11 12 8 11 12 9 13 10 7 22 26 25 23 18 17 29 24 25 24 21 22 27 25 23 24 23 22 17 24 26 31 39 40 39 40 40 40 42 45 45 37 36
5 5 6 4 5 5 9 13 6 14 20 23 22 23 23 23 25 25 26 25 23 22 22 26 21 22 26 27 22 18 27 34 40 43 42 41 41 38 40 48 44 39 37 35
5 5 4 5 8 22 21 19 17 13 19 22 22 23 23 24 26 27 27 26 23 22 20 21 22 20 17 26 32 34 38 41 44 47 41 41 41 35 38 42 43 34 30 29
7 8 4 5 12 17 19 20 12 20 21 22 21 23 23 25 25 27 22 14 2 7 13 18 22 17 21 38 43 45 43 46 48 47 43 42 43 39 38 35 32 30 26 24
9 5 6 9 18 12 12 14 19 21 20 20 22 23 23 22 18 18 10 13 12 17 21 27 22 23 26 36 42 44 45 50 49 45 44 41 42 37 37 32 28 28 21 19
5 5 4 7 14 8 12 17 21 19 20 20 21 23 18 12 15 10 13 13 13 17 25 24 28 31 30 36 36 43 44 50 53 46 41 39 38 36 38 40 41 36 34 31
Wind_Direction
290 274 274 295 300 292 294 287 286 288 296 291 282 282 281 275 266 263 258 252 253 249 245 238 234 237 245 237 244 225 219 216 213 206 192 192 193 190 185 180 174 175 177 175
262 257 280 302 285 279 280 282 281 289 292 299 294 284 285 274 265 261 259 255 249 249 241 231 234 231 240 247 242 233 227 217 211 199 198 201 195 194 186 174 177 179 173 182
292 285 293 284 279 277 273 279 293 298 302 282 276 288 269 214 244 250 255 255 254 250 244 233 228 230 237 241 240 236 225 220 212 203 198 189 191 190 182 167 180 170 169 182
287 306 294 282 279 283 283 291 304 291 285 288 322 289 293 300 283 284 270 244 245 237 236 240 233 228 233 236 238 237 225 212 207 211 194 187 186 182 187 172 172 159 166 181
273 313 305 299 293 296 285 313 286 287 281 285 274 258 291 219 279 113 60 334 249 244 240 231 227 230 232 243 238 227 221 212 200 206 205 195 200 188 176 177 155 149 163 179
284 294 293 297 300 295 315 272 291 271 262 268 269 239 276 271 1 306 328 279 237 300 236 238 244 235 234 241 243 235 219 206 203 204 202 200 188 185 176 172 150 156 156 168
318 309 314 276 285 210 246 303 304 283 185 251 93 290 267 293 299 309 307 312 296 245 258 245 222 224 228 237 234 236 223 210 200 202 206 199 189 189 176 156 157 153 147 151
344 318 355 19 304 301 291 286 263 302 292 313 308 263 1 294 319 308 298 279 274 263 247 261 273 265 259 242 250 229 229 220 202 202 208 207 196 188 177 165 168 161 158 162
317 293 311 287 303 254 283 227 271 278 258 262 238 250 236 246 226 84 21 52 148 303 320 325 316 290 290 284 264 246 232 223 219 207 209 210 195 183 168 164 157 163 151 151
309 309 301 337 292 256 247 295 250 228 266 267 268 290 266 169 83 102 99 92 166 294 312 320 312 313 316 298 284 266 240 228 218 215 214 215 192 180 162 155 156 155 155 152
300 269 275 297 275 271 238 246 245 272 271 270 290 298 54 286 294 321 310 276 309 316 306 312 313 316 313 302 284 280 245 234 220 216 215 218 195 173 149 154 156 161 166 155
342 294 287 283 284 276 264 250 250 249 255 251 279 276 302 309 291 15 261 270 299 311 302 296 296 298 303 300 285 277 252 237 219 217 214 214 179 157 161 159 150 151 149 149
357 259 300 290 151 115 264 247 251 256 265 254 268 264 225 228 227 273 312 308 311 299 299 294 288 286 292 296 292 288 274 235 214 208 200 195 196 157 150 143 147 149 143 140
280 213 237 259 286 302 276 266 264 249 250 261 253 273 271 283 294 310 311 320 307 310 296 294 290 276 275 278 281 292 278 238 200 202 177 187 170 176 156 150 151 141 137 139
219 250 242 250 267 278 279 280 276 267 263 256 279 283 285 290 287 304 316 302 293 288 285 285 284 283 274 263 266 279 263 238 195 198 176 168 114 142 146 131 130 131 134 131
350 271 275 268 263 260 278 281 276 272 272 263 265 269 271 271 310 291 299 286 288 285 282 279 276 274 268 264 258 263 267 237 198 192 173 136 129 135 128 120 120 120 121 120
241 254 271 288 305 301 289 297 254 269 280 289 281 291 306 309 309 295 289 284 289 288 280 274 274 266 262 256 254 257 261 249 207 187 138 138 132 122 126 120 119 118 116 118
209 220 260 284 304 276 337 225 284 286 282 280 289 299 327 309 293 281 290 295 287 280 272 262 268 285 253 249 249 251 249 245 191 144 131 133 131 117 137 121 119 117 119 120
216 237 267 272 290 281 289 92 258 311 296 287 294 302 289 289 309 286 277 276 264 262 271 274 271 278 278 247 237 233 235 228 140 133 132 135 134 135 127 126 121 117 117 114
218 220 234 291 288 295 342 90 280 314 287 83 293 306 314 315 290 287 307 296 279 271 266 263 263 258 254 246 236 221 211 145 140 137 132 131 129 132 135 125 120 115 110 109
282 270 257 273 270 275 35 6 309 282 331 314 317 310 305 293 273 285 291 285 276 270 267 259 251 244 238 233 223 205 154 144 136 130 126 126 124 129 128 122 120 117 113 109
269 300 290 279 267 272 347 318 253 315 305 302 303 303 298 289 287 287 283 276 272 268 257 246 232 231 223 220 196 169 135 135 130 124 123 123 126 125 126 119 113 113 112 108
264 230 281 291 286 298 313 300 298 309 307 309 304 303 296 292 292 291 285 281 272 257 249 218 217 211 187 197 155 129 131 130 124 120 119 118 119 125 123 118 118 119 117 117
269 321 255 290 255 289 320 314 309 315 307 308 298 292 293 292 291 289 290 286 310 254 161 151 126 121 116 124 126 124 128 126 121 117 118 117 114 114 111 111 115 120 118 117
271 284 243 253 281 298 275 310 305 309 311 303 298 298 299 302 313 315 80 66 53 73 96 106 111 106 111 118 120 123 125 125 117 117 115 115 113 114 105 97 100 103 104 119
226 233 248 278 316 296 299 310 316 316 308 305 306 304 315 353 340 4 64 81 87 90 98 97 105 107 109 110 116 120 126 125 121 117 115 115 114 110 103 100 92 101 111 110